Time,TemperatureF,DewpointF,PressureIn,WindDirection,WindDirectionDegrees,WindSpeedMPH,WindSpeedGustMPH,Humidity,HourlyPrecipIn,Conditions,Clouds,dailyrainin,SoftwareType,DateUTC
2013-01-28 00:04:00,76.1,65.6,30.12,NNE,19,0.0,0.0,70,0.00,,SCT120,0.00,VWS V14.01,2013-01-28 04:04:00,
2013-01-28 00:09:00,75.9,65.4,30.12,NNE,19,0.0,0.0,70,0.00,,SCT120,0.00,VWS V14.01,2013-01-28 04:09:00,
2013-01-28 00:14:00,75.7,64.9,30.12,NNE,19,0.0,0.0,69,0.00,,SCT120,0.00,VWS V14.01,2013-01-28 04:14:00,
2013-01-28 00:19:00,75.6,65.1,30.12,NNE,19,0.0,0.0,70,0.00,,SCT120,0.00,VWS V14.01,2013-01-28 04:19:00,
2013-01-28 00:24:00,75.6,65.1,30.12,NNE,19,0.0,0.0,70,0.00,,SCT120,0.00,VWS V14.01,2013-01-28 04:24:00,
2013-01-28 00:29:00,75.4,65.3,30.12,NNE,19,0.0,0.0,71,0.00,,SCT120,0.00,VWS V14.01,2013-01-28 04:29:00,
2013-01-28 00:34:00,75.6,66.3,30.12,NNE,19,0.0,0.0,73,0.00,,SCT120,0.00,VWS V14.01,2013-01-28 04:34:00,
2013-01-28 00:39:00,75.4,66.5,30.12,NNE,19,0.0,0.0,74,0.00,,SCT120,0.00,VWS V14.01,2013-01-28 04:39:00,
2013-01-28 00:44:00,75.2,66.3,30.12,NNE,19,0.0,0.0,74,0.00,,SCT120,0.00,VWS V14.01,2013-01-28 04:44:00,
2013-01-28 00:49:00,74.8,66.4,30.12,NNE,19,0.0,0.0,75,0.00,,SCT120,0.00,VWS V14.01,2013-01-28 04:49:00,
2013-01-28 00:54:00,74.5,66.0,30.12,NNE,19,0.0,0.0,75,0.00,,SCT120,0.00,VWS V14.01,2013-01-28 04:54:00,
2013-01-28 00:59:00,74.5,66.0,30.12,NNE,19,0.0,0.0,75,0.00,,SCT120,0.00,VWS V14.01,2013-01-28 04:59:00,
2013-01-28 01:00:00,74.5,66.0,30.12,NNE,19,0.0,0.0,75,0.00,,SCT120,0.00,VWS V14.01,2013-01-28 05:00:00,
2013-01-28 01:01:00,74.5,66.0,30.12,NNE,19,0.0,0.0,75,0.00,,SCT120,0.00,VWS V14.01,2013-01-28 05:01:00,
2013-01-28 01:03:00,74.3,65.9,30.12,NNE,19,0.0,0.0,75,0.00,,SCT120,0.00,VWS V14.01,2013-01-28 05:03:00,
2013-01-28 01:08:00,74.3,65.9,30.09,NNE,19,0.0,0.0,75,0.00,,SCT120,0.00,VWS V14.01,2013-01-28 05:08:00,
2013-01-28 01:13:00,74.3,65.9,30.09,NNE,19,0.0,0.0,75,0.00,,SCT120,0.00,VWS V14.01,2013-01-28 05:13:00,
2013-01-28 01:18:00,74.5,66.4,30.09,NNE,19,0.0,0.0,76,0.00,,SCT120,0.00,VWS V14.01,2013-01-28 05:18:00,
2013-01-28 01:23:00,74.3,65.9,30.09,NNE,19,0.0,0.0,75,0.00,,SCT120,0.00,VWS V14.01,2013-01-28 05:23:00,
2013-01-28 01:28:00,73.9,65.5,30.09,NNE,19,0.0,0.0,75,0.00,,SCT120,0.00,VWS V14.01,2013-01-28 05:28:00,
2013-01-28 01:33:00,73.8,65.3,30.09,NNE,19,0.0,0.0,75,0.00,,SCT120,0.00,VWS V14.01,2013-01-28 05:33:00,
2013-01-28 01:38:00,73.6,65.6,30.09,NNE,19,0.0,0.0,76,0.00,,SCT120,0.00,VWS V14.01,2013-01-28 05:38:00,
2013-01-28 01:43:00,73.6,65.9,30.09,NNE,19,0.0,0.0,77,0.00,,SCT120,0.00,VWS V14.01,2013-01-28 05:43:00,
2013-01-28 01:48:00,73.6,65.9,30.09,NNE,19,0.0,0.0,77,0.00,,SCT120,0.00,VWS V14.01,2013-01-28 05:48:00,
2013-01-28 01:53:00,73.6,66.3,30.09,NNE,19,0.0,0.0,78,0.00,,SCT120,0.00,VWS V14.01,2013-01-28 05:53:00,
2013-01-28 01:58:00,73.8,66.5,30.09,NNE,19,0.0,0.0,78,0.00,,SCT120,0.00,VWS V14.01,2013-01-28 05:58:00,
2013-01-28 02:03:00,73.8,66.5,30.09,NNE,19,0.0,0.0,78,0.00,,SCT120,0.00,VWS V14.01,2013-01-28 06:03:00,
2013-01-28 02:08:00,73.6,66.3,30.09,NNE,19,0.0,0.0,78,0.00,,SCT120,0.00,VWS V14.01,2013-01-28 06:08:00,
2013-01-28 02:13:00,73.4,66.1,30.09,NNE,19,0.0,0.0,78,0.00,,SCT120,0.00,VWS V14.01,2013-01-28 06:13:00,
2013-01-28 02:18:00,73.2,66.0,30.09,NNE,19,0.0,0.0,78,0.00,,SCT120,0.00,VWS V14.01,2013-01-28 06:18:00,
2013-01-28 02:23:00,73.0,65.8,30.09,NNE,19,0.0,0.0,78,0.00,,SCT120,0.00,VWS V14.01,2013-01-28 06:23:00,
2013-01-28 02:28:00,73.0,66.2,30.09,NNE,19,0.0,0.0,79,0.00,,SCT120,0.00,VWS V14.01,2013-01-28 06:28:00,
2013-01-28 02:33:00,73.2,66.3,30.09,NNE,19,0.0,0.0,79,0.00,,SCT120,0.00,VWS V14.01,2013-01-28 06:33:00,
2013-01-28 02:38:00,73.0,66.2,30.09,NNE,19,0.0,0.0,79,0.00,,SCT120,0.00,VWS V14.01,2013-01-28 06:38:00,
2013-01-28 02:43:00,73.0,66.2,30.09,NNE,19,0.0,0.0,79,0.00,,SCT120,0.00,VWS V14.01,2013-01-28 06:43:00,
2013-01-28 02:48:00,72.9,66.0,30.09,NNE,19,0.0,0.0,79,0.00,,SCT120,0.00,VWS V14.01,2013-01-28 06:48:00,
2013-01-28 02:53:00,72.9,66.0,30.09,NNE,19,0.0,0.0,79,0.00,,SCT120,0.00,VWS V14.01,2013-01-28 06:53:00,
2013-01-28 02:58:00,72.9,66.0,30.09,NNE,19,0.0,0.0,79,0.00,,SCT120,0.00,VWS V14.01,2013-01-28 06:58:00,
2013-01-28 03:03:00,73.0,66.5,30.09,NNE,19,0.0,0.0,80,0.00,,SCT120,0.00,VWS V14.01,2013-01-28 07:03:00,
2013-01-28 03:08:00,73.2,66.7,30.06,NNE,19,0.0,0.0,80,0.00,,SCT120,0.00,VWS V14.01,2013-01-28 07:08:00,
2013-01-28 03:13:00,73.0,66.9,30.06,NNE,19,0.0,0.0,81,0.00,,SCT120,0.00,VWS V14.01,2013-01-28 07:13:00,
2013-01-28 03:18:00,73.0,66.9,30.06,NNE,19,0.0,0.0,81,0.00,,SCT120,0.00,VWS V14.01,2013-01-28 07:18:00,
2013-01-28 03:23:00,73.2,67.1,30.06,NNE,19,0.0,0.0,81,0.00,,SCT120,0.00,VWS V14.01,2013-01-28 07:23:00,
2013-01-28 03:28:00,73.4,67.2,30.06,NNE,19,0.0,0.0,81,0.00,,SCT120,0.00,VWS V14.01,2013-01-28 07:28:00,
2013-01-28 03:33:00,73.2,67.1,30.06,NNE,19,0.0,0.0,81,0.00,,SCT120,0.00,VWS V14.01,2013-01-28 07:33:00,
2013-01-28 03:38:00,73.0,66.5,30.06,NNE,19,0.0,0.0,80,0.00,,SCT120,0.00,VWS V14.01,2013-01-28 07:38:00,
2013-01-28 03:43:00,72.9,66.3,30.06,NNE,19,0.0,0.0,80,0.00,,SCT120,0.00,VWS V14.01,2013-01-28 07:43:00,
2013-01-28 03:48:00,72.5,66.0,30.06,NNE,19,0.0,0.0,80,0.00,,SCT120,0.00,VWS V14.01,2013-01-28 07:48:00,
2013-01-28 03:53:00,72.3,65.8,30.06,NNE,19,0.0,0.0,80,0.00,,SCT120,0.00,VWS V14.01,2013-01-28 07:53:00,
2013-01-28 03:58:00,72.1,65.6,30.06,NNE,19,0.0,0.0,80,0.00,,SCT120,0.00,VWS V14.01,2013-01-28 07:58:00,
2013-01-28 04:03:00,72.3,65.8,30.06,NNE,19,0.0,0.0,80,0.00,,SCT120,0.00,VWS V14.01,2013-01-28 08:03:00,
2013-01-28 04:08:00,72.3,65.8,30.06,NNE,19,0.0,0.0,80,0.00,,SCT120,0.00,VWS V14.01,2013-01-28 08:08:00,
2013-01-28 04:13:00,72.3,65.8,30.06,NNE,19,0.0,0.0,80,0.00,,SCT120,0.00,VWS V14.01,2013-01-28 08:13:00,
2013-01-28 04:18:00,72.1,65.6,30.06,NNE,19,0.0,0.0,80,0.00,,SCT120,0.00,VWS V14.01,2013-01-28 08:18:00,
2013-01-28 04:23:00,72.0,65.5,30.06,NNE,19,0.0,0.0,80,0.00,,SCT120,0.00,VWS V14.01,2013-01-28 08:23:00,
2013-01-28 04:28:00,71.8,65.3,30.06,NNE,19,0.0,0.0,80,0.00,,SCT120,0.00,VWS V14.01,2013-01-28 08:28:00,
2013-01-28 04:33:00,71.8,66.0,30.06,NNE,19,0.0,0.0,82,0.00,,SCT120,0.00,VWS V14.01,2013-01-28 08:33:00,
2013-01-28 04:38:00,72.0,66.2,30.09,NNE,19,0.0,0.0,82,0.00,,SCT120,0.00,VWS V14.01,2013-01-28 08:38:00,
2013-01-28 04:43:00,72.1,66.7,30.09,NNE,19,0.0,0.0,83,0.00,,SCT120,0.00,VWS V14.01,2013-01-28 08:43:00,
2013-01-28 04:48:00,72.1,66.7,30.09,NNE,19,0.0,0.0,83,0.00,,SCT120,0.00,VWS V14.01,2013-01-28 08:48:00,
2013-01-28 04:53:00,72.1,67.0,30.06,NNE,19,0.0,0.0,84,0.00,,SCT120,0.00,VWS V14.01,2013-01-28 08:53:00,
2013-01-28 04:58:00,72.1,67.0,30.06,NNE,19,0.0,0.0,84,0.00,,SCT120,0.00,VWS V14.01,2013-01-28 08:58:00,
2013-01-28 05:03:00,72.3,67.2,30.06,NNE,19,0.0,0.0,84,0.00,,SCT120,0.00,VWS V14.01,2013-01-28 09:03:00,
2013-01-28 05:08:00,72.3,67.2,30.09,NNE,19,0.0,0.0,84,0.00,,SCT120,0.00,VWS V14.01,2013-01-28 09:08:00,
2013-01-28 05:13:00,72.3,67.2,30.09,NNE,19,0.0,0.0,84,0.00,,SCT120,0.00,VWS V14.01,2013-01-28 09:13:00,
2013-01-28 05:18:00,72.0,66.9,30.09,NNE,19,0.0,0.0,84,0.00,,SCT120,0.00,VWS V14.01,2013-01-28 09:18:00,
2013-01-28 05:23:00,72.0,66.9,30.09,NNE,19,0.0,0.0,84,0.00,,SCT120,0.00,VWS V14.01,2013-01-28 09:23:00,
2013-01-28 05:28:00,71.8,66.7,30.09,NNE,19,0.0,0.0,84,0.00,,SCT120,0.00,VWS V14.01,2013-01-28 09:28:00,
2013-01-28 05:33:00,72.0,66.9,30.09,NNE,19,0.0,0.0,84,0.00,,SCT120,0.00,VWS V14.01,2013-01-28 09:33:00,
2013-01-28 05:38:00,72.0,67.2,30.09,NNE,19,0.0,0.0,85,0.00,,SCT120,0.00,VWS V14.01,2013-01-28 09:38:00,
2013-01-28 05:43:00,71.8,67.0,30.09,NNE,19,0.0,0.0,85,0.00,,SCT120,0.00,VWS V14.01,2013-01-28 09:43:00,
2013-01-28 05:48:00,72.0,67.6,30.09,NNE,19,0.0,0.0,86,0.00,,SCT120,0.00,VWS V14.01,2013-01-28 09:48:00,
2013-01-28 05:53:00,72.0,67.6,30.09,NNE,19,0.0,0.0,86,0.00,,SCT120,0.00,VWS V14.01,2013-01-28 09:53:00,
2013-01-28 05:58:00,72.1,67.7,30.09,NNE,19,0.0,0.0,86,0.00,,SCT120,0.00,VWS V14.01,2013-01-28 09:58:00,
2013-01-28 06:03:00,72.1,67.7,30.09,NNE,19,0.0,0.0,86,0.00,,SCT120,0.00,VWS V14.01,2013-01-28 10:03:00,
2013-01-28 06:08:00,72.1,67.7,30.09,NNE,19,0.0,0.0,86,0.00,,SCT120,0.00,VWS V14.01,2013-01-28 10:08:00,
2013-01-28 06:13:00,72.1,67.7,30.09,NNE,19,0.0,0.0,86,0.00,,SCT120,0.00,VWS V14.01,2013-01-28 10:13:00,
2013-01-28 06:18:00,72.1,67.7,30.09,NNE,19,0.0,0.0,86,0.00,,SCT120,0.00,VWS V14.01,2013-01-28 10:18:00,
2013-01-28 06:23:00,72.1,67.7,30.09,NNE,19,0.0,0.0,86,0.00,,SCT120,0.00,VWS V14.01,2013-01-28 10:23:00,
2013-01-28 06:28:00,72.1,67.7,30.09,NNE,19,0.0,0.0,86,0.00,,SCT120,0.00,VWS V14.01,2013-01-28 10:28:00,
2013-01-28 06:33:00,72.3,67.9,30.09,NNE,19,0.0,0.0,86,0.00,,SCT120,0.00,VWS V14.01,2013-01-28 10:33:00,
2013-01-28 06:38:00,72.3,67.9,30.09,NNE,19,0.0,0.0,86,0.00,,SCT120,0.00,VWS V14.01,2013-01-28 10:38:00,
2013-01-28 06:43:00,72.1,67.7,30.09,NNE,19,0.0,0.0,86,0.00,,SCT120,0.00,VWS V14.01,2013-01-28 10:43:00,
2013-01-28 06:48:00,72.1,67.7,30.09,NNE,19,0.0,0.0,86,0.00,,SCT120,0.00,VWS V14.01,2013-01-28 10:48:00,
2013-01-28 06:53:00,72.1,67.4,30.12,NNE,19,0.0,0.0,85,0.00,,SCT120,0.00,VWS V14.01,2013-01-28 10:53:00,
2013-01-28 06:58:00,72.1,67.7,30.12,NNE,19,0.0,0.0,86,0.00,,SCT120,0.00,VWS V14.01,2013-01-28 10:58:00,
2013-01-28 07:03:00,72.3,67.9,30.12,NNE,19,0.0,0.0,86,0.00,,SCT120,0.00,VWS V14.01,2013-01-28 11:03:00,
2013-01-28 07:08:00,72.3,67.9,30.12,NNE,19,0.0,0.0,86,0.00,,SCT120,0.00,VWS V14.01,2013-01-28 11:08:00,
2013-01-28 07:13:00,72.3,67.6,30.12,NNE,19,0.0,0.0,85,0.00,,SCT120,0.00,VWS V14.01,2013-01-28 11:13:00,
2013-01-28 07:18:00,72.1,67.4,30.12,NNE,19,0.0,0.0,85,0.00,,SCT120,0.00,VWS V14.01,2013-01-28 11:18:00,
2013-01-28 07:23:00,72.1,67.4,30.12,NNE,19,0.0,0.0,85,0.00,,SCT120,0.00,VWS V14.01,2013-01-28 11:23:00,
2013-01-28 07:29:00,72.0,67.2,30.12,NNE,19,0.0,0.0,85,0.00,,SCT120,0.00,VWS V14.01,2013-01-28 11:29:00,
2013-01-28 07:33:00,72.1,67.7,30.12,NNE,19,0.0,0.0,86,0.00,,SCT120,0.00,VWS V14.01,2013-01-28 11:33:00,
2013-01-28 07:38:00,72.3,67.9,30.12,NNE,19,0.0,0.0,86,0.00,,SCT120,0.00,VWS V14.01,2013-01-28 11:38:00,
2013-01-28 07:43:00,72.3,67.9,30.12,NNE,19,0.0,0.0,86,0.00,,SCT120,0.00,VWS V14.01,2013-01-28 11:43:00,
2013-01-28 07:48:00,72.3,67.9,30.12,NNE,19,0.0,0.0,86,0.00,,SCT120,0.00,VWS V14.01,2013-01-28 11:48:00,
2013-01-28 07:53:00,72.5,68.1,30.12,NNE,19,0.0,0.0,86,0.00,,SCT120,0.00,VWS V14.01,2013-01-28 11:53:00,
2013-01-28 07:58:00,72.5,68.1,30.12,NNE,19,0.0,0.0,86,0.00,,SCT120,0.00,VWS V14.01,2013-01-28 11:58:00,
2013-01-28 08:03:00,72.7,68.3,30.12,NNE,19,0.0,0.0,86,0.00,,SCT120,0.00,VWS V14.01,2013-01-28 12:03:00,
2013-01-28 08:08:00,72.9,68.4,30.12,NNE,19,0.0,0.0,86,0.00,,SCT120,0.00,VWS V14.01,2013-01-28 12:08:00,
2013-01-28 08:13:00,73.4,69.0,30.12,NNE,19,0.0,0.0,86,0.00,,SCT120,0.00,VWS V14.01,2013-01-28 12:13:00,
2013-01-28 08:18:00,73.6,69.1,30.12,NNE,19,0.0,0.0,86,0.00,,SCT120,0.00,VWS V14.01,2013-01-28 12:18:00,
2013-01-28 08:23:00,73.6,69.1,30.15,NNE,19,0.0,0.0,86,0.00,,SCT120,0.00,VWS V14.01,2013-01-28 12:23:00,
2013-01-28 08:28:00,73.8,69.3,30.15,NNE,19,0.0,0.0,86,0.00,,SCT120,0.00,VWS V14.01,2013-01-28 12:28:00,
2013-01-28 08:33:00,74.1,69.7,30.15,NNE,19,0.0,0.0,86,0.00,,SCT120,0.00,VWS V14.01,2013-01-28 12:33:00,
2013-01-28 08:38:00,74.8,70.4,30.15,NNE,19,0.0,0.0,86,0.04,,SCT120,0.04,VWS V14.01,2013-01-28 12:38:00,
2013-01-28 08:43:00,75.2,70.4,30.15,NNE,19,0.0,0.0,85,0.04,,SCT120,0.04,VWS V14.01,2013-01-28 12:43:00,
2013-01-28 08:48:00,75.6,70.7,30.15,NNE,19,0.0,0.0,85,0.04,,SCT120,0.04,VWS V14.01,2013-01-28 12:48:00,
2013-01-28 08:53:00,75.9,70.7,30.15,NNE,19,0.0,0.0,84,0.04,,SCT120,0.04,VWS V14.01,2013-01-28 12:53:00,
2013-01-28 08:58:00,76.3,69.7,30.15,NNE,19,0.0,0.0,80,0.04,,SCT120,0.04,VWS V14.01,2013-01-28 12:58:00,
2013-01-28 09:03:00,76.5,68.3,30.15,NNE,19,0.0,0.0,76,0.04,,SCT120,0.04,VWS V14.01,2013-01-28 13:03:00,
2013-01-28 09:08:00,76.8,66.3,30.15,NNE,19,0.0,0.0,70,0.04,,SCT120,0.04,VWS V14.01,2013-01-28 13:08:00,
2013-01-28 09:13:00,77.7,67.2,30.15,NNE,19,0.0,0.0,70,0.04,,SCT120,0.04,VWS V14.01,2013-01-28 13:13:00,
2013-01-28 09:18:00,78.1,64.0,30.15,NNE,19,0.0,0.0,62,0.04,,SCT120,0.04,VWS V14.01,2013-01-28 13:18:00,
2013-01-28 09:23:00,78.4,63.4,30.15,NNE,19,0.0,0.0,60,0.04,,SCT120,0.04,VWS V14.01,2013-01-28 13:23:00,
2013-01-28 09:28:00,78.1,62.1,30.15,NNE,19,0.0,0.0,58,0.04,,SCT120,0.04,VWS V14.01,2013-01-28 13:28:00,
2013-01-28 09:33:00,77.7,60.3,30.15,NNE,19,0.0,0.0,55,0.04,,SCT120,0.04,VWS V14.01,2013-01-28 13:33:00,
2013-01-28 09:38:00,77.2,60.8,30.15,NNE,19,0.0,0.0,57,0.04,,SCT120,0.04,VWS V14.01,2013-01-28 13:38:00,
2013-01-28 09:43:00,76.8,60.9,30.15,NNE,19,0.0,0.0,58,0.00,,SCT120,0.04,VWS V14.01,2013-01-28 13:43:00,
2013-01-28 09:48:00,76.8,61.4,30.15,NNE,19,0.0,0.0,59,0.00,,SCT120,0.04,VWS V14.01,2013-01-28 13:48:00,
2013-01-28 09:53:00,77.9,62.9,30.15,NNE,19,0.0,0.0,60,0.00,,SCT120,0.04,VWS V14.01,2013-01-28 13:53:00,
2013-01-28 09:58:00,79.0,60.9,30.15,NNE,19,0.0,0.0,54,0.00,,SCT120,0.04,VWS V14.01,2013-01-28 13:58:00,
2013-01-28 10:03:00,79.3,58.5,30.15,NNE,19,0.0,0.0,49,0.00,,SCT120,0.04,VWS V14.01,2013-01-28 14:03:00,
2013-01-28 10:08:00,79.0,57.6,30.18,NNE,19,0.0,0.0,48,0.00,,SCT120,0.04,VWS V14.01,2013-01-28 14:08:00,
2013-01-28 10:13:00,79.2,57.8,30.18,NNE,19,0.0,0.0,48,0.00,,SCT120,0.04,VWS V14.01,2013-01-28 14:13:00,
2013-01-28 10:18:00,79.0,58.2,30.18,NNE,19,0.0,0.0,49,0.00,,SCT120,0.04,VWS V14.01,2013-01-28 14:18:00,
2013-01-28 10:23:00,78.6,60.1,30.18,NNE,19,0.0,0.0,53,0.00,,SCT120,0.04,VWS V14.01,2013-01-28 14:23:00,
2013-01-28 10:28:00,79.7,61.6,30.18,NNE,19,0.0,0.0,54,0.00,,SCT120,0.04,VWS V14.01,2013-01-28 14:28:00,
2013-01-28 10:33:00,80.2,57.0,30.18,NNE,19,0.0,0.0,45,0.00,,SCT120,0.04,VWS V14.01,2013-01-28 14:33:00,
2013-01-28 10:38:00,80.1,56.2,30.18,NNE,19,0.0,0.0,44,0.00,,SCT120,0.04,VWS V14.01,2013-01-28 14:38:00,
2013-01-28 10:43:00,80.4,55.9,30.18,NNE,19,0.0,0.0,43,0.00,,SCT120,0.04,VWS V14.01,2013-01-28 14:43:00,
2013-01-28 10:48:00,81.3,57.3,30.18,NNE,19,0.0,0.0,44,0.00,,SCT120,0.04,VWS V14.01,2013-01-28 14:48:00,
2013-01-28 10:53:00,81.1,56.5,30.15,NNE,19,0.0,0.0,43,0.00,,SCT120,0.04,VWS V14.01,2013-01-28 14:53:00,
2013-01-28 10:58:00,80.4,57.2,30.15,NNE,19,0.0,0.0,45,0.00,,SCT120,0.04,VWS V14.01,2013-01-28 14:58:00,
2013-01-28 11:04:00,80.8,56.2,30.15,NNE,19,0.0,0.0,43,0.00,,SCT120,0.04,VWS V14.01,2013-01-28 15:04:00,
2013-01-28 11:09:00,80.6,56.1,30.15,NNE,19,0.0,0.0,43,0.00,,SCT120,0.04,VWS V14.01,2013-01-28 15:09:00,
2013-01-28 11:14:00,80.2,56.4,30.15,NNE,19,0.0,0.0,44,0.00,,SCT120,0.04,VWS V14.01,2013-01-28 15:14:00,
2013-01-28 11:19:00,80.2,56.4,30.15,NNE,19,0.0,0.0,44,0.00,,SCT120,0.04,VWS V14.01,2013-01-28 15:19:00,
2013-01-28 11:24:00,80.8,56.2,30.15,NNE,19,0.0,0.0,43,0.00,,SCT120,0.04,VWS V14.01,2013-01-28 15:24:00,
2013-01-28 11:29:00,81.9,56.5,30.15,NNE,19,0.0,0.0,42,0.00,,SCT120,0.04,VWS V14.01,2013-01-28 15:29:00,
2013-01-28 11:34:00,82.0,56.7,30.15,NNE,19,0.0,0.0,42,0.00,,SCT120,0.04,VWS V14.01,2013-01-28 15:34:00,
2013-01-28 11:39:00,82.0,57.4,30.15,NNE,19,0.0,0.0,43,0.00,,SCT120,0.04,VWS V14.01,2013-01-28 15:39:00,
2013-01-28 11:44:00,82.4,51.2,30.15,NNE,19,0.0,0.0,34,0.00,,SCT120,0.04,VWS V14.01,2013-01-28 15:44:00,
2013-01-28 11:49:00,82.6,47.1,30.15,NNE,19,0.0,0.0,29,0.00,,SCT120,0.04,VWS V14.01,2013-01-28 15:49:00,
2013-01-28 11:54:00,82.4,47.9,30.15,NNE,19,0.0,0.0,30,0.00,,SCT120,0.04,VWS V14.01,2013-01-28 15:54:00,
2013-01-28 11:59:00,82.2,48.6,30.15,NNE,19,0.0,0.0,31,0.00,,SCT120,0.04,VWS V14.01,2013-01-28 15:59:00,
2013-01-28 12:04:00,81.9,49.1,30.15,NNE,19,0.0,0.0,32,0.00,,SCT120,0.04,VWS V14.01,2013-01-28 16:04:00,
2013-01-28 12:09:00,81.9,48.3,30.15,NNE,19,0.0,0.0,31,0.00,,SCT120,0.04,VWS V14.01,2013-01-28 16:09:00,
2013-01-28 12:14:00,81.7,49.8,30.15,NNE,19,0.0,0.0,33,0.00,,SCT120,0.04,VWS V14.01,2013-01-28 16:14:00,
2013-01-28 12:19:00,81.0,50.0,30.15,NNE,19,0.0,0.0,34,0.00,,SCT120,0.04,VWS V14.01,2013-01-28 16:19:00,
2013-01-28 12:24:00,82.9,52.5,30.12,NNE,19,0.0,0.0,35,0.00,,SCT120,0.04,VWS V14.01,2013-01-28 16:24:00,
2013-01-28 12:29:00,84.0,49.3,30.12,NNE,19,0.0,0.0,30,0.00,,SCT120,0.04,VWS V14.01,2013-01-28 16:29:00,
2013-01-28 12:34:00,84.0,49.3,30.12,NNE,19,0.0,0.0,30,0.00,,SCT120,0.04,VWS V14.01,2013-01-28 16:34:00,
2013-01-28 12:39:00,84.6,49.8,30.12,NNE,19,0.0,0.0,30,0.00,,SCT120,0.04,VWS V14.01,2013-01-28 16:39:00,
2013-01-28 12:44:00,84.6,48.8,30.12,NNE,19,0.0,0.0,29,0.00,,SCT120,0.04,VWS V14.01,2013-01-28 16:44:00,
2013-01-28 12:49:00,85.1,49.3,30.12,NNE,19,0.0,0.0,29,0.00,,SCT120,0.04,VWS V14.01,2013-01-28 16:49:00,
2013-01-28 12:54:00,84.0,48.4,30.12,NNE,19,0.0,0.0,29,0.00,,SCT120,0.04,VWS V14.01,2013-01-28 16:54:00,
2013-01-28 12:59:00,84.4,48.7,30.12,NNE,19,0.0,0.0,29,0.00,,SCT120,0.04,VWS V14.01,2013-01-28 16:59:00,
2013-01-28 13:04:00,84.9,48.2,30.12,NNE,19,0.0,0.0,28,0.00,,SCT120,0.04,VWS V14.01,2013-01-28 17:04:00,
2013-01-28 13:09:00,84.6,48.8,30.12,NNE,19,0.0,0.0,29,0.00,,SCT120,0.04,VWS V14.01,2013-01-28 17:09:00,
2013-01-28 13:14:00,85.3,46.5,30.12,NNE,19,0.0,0.0,26,0.00,,SCT120,0.04,VWS V14.01,2013-01-28 17:14:00,
2013-01-28 13:19:00,85.8,43.8,30.12,NNE,19,0.0,0.0,23,0.00,,SCT120,0.04,VWS V14.01,2013-01-28 17:19:00,
2013-01-28 13:24:00,86.5,45.5,30.09,NNE,19,0.0,0.0,24,0.00,,SCT120,0.04,VWS V14.01,2013-01-28 17:24:00,
2013-01-28 13:29:00,84.9,43.0,30.09,NNE,19,0.0,0.0,23,0.00,,SCT120,0.04,VWS V14.01,2013-01-28 17:29:00,
2013-01-28 13:34:00,84.4,47.8,30.09,NNE,19,0.0,0.0,28,0.00,,SCT120,0.04,VWS V14.01,2013-01-28 17:34:00,
2013-01-28 13:39:00,82.9,47.5,30.09,NNE,19,0.0,0.0,29,0.00,,SCT120,0.04,VWS V14.01,2013-01-28 17:39:00,
2013-01-28 13:44:00,83.1,47.6,30.09,NNE,19,0.0,0.0,29,0.00,,SCT120,0.04,VWS V14.01,2013-01-28 17:44:00,
2013-01-28 13:49:00,84.9,48.2,30.09,NNE,19,0.0,0.0,28,0.00,,SCT120,0.04,VWS V14.01,2013-01-28 17:49:00,
2013-01-28 13:54:00,85.8,44.9,30.09,NNE,19,0.0,0.0,24,0.00,,SCT120,0.04,VWS V14.01,2013-01-28 17:54:00,
2013-01-28 13:59:00,84.7,45.1,30.09,NNE,19,0.0,0.0,25,0.00,,SCT120,0.04,VWS V14.01,2013-01-28 17:59:00,
2013-01-28 14:04:00,83.8,48.2,30.09,NNE,19,0.0,0.0,29,0.00,,SCT120,0.04,VWS V14.01,2013-01-28 18:04:00,
2013-01-28 14:09:00,84.0,47.4,30.09,NNE,19,0.0,0.0,28,0.00,,SCT120,0.04,VWS V14.01,2013-01-28 18:09:00,
2013-01-28 14:14:00,83.8,47.3,30.09,NNE,19,0.0,0.0,28,0.00,,SCT120,0.04,VWS V14.01,2013-01-28 18:14:00,
2013-01-28 14:19:00,84.0,48.4,30.09,NNE,19,0.0,0.0,29,0.00,,SCT120,0.04,VWS V14.01,2013-01-28 18:19:00,
2013-01-28 14:24:00,84.4,45.8,30.09,NNE,19,0.0,0.0,26,0.00,,SCT120,0.04,VWS V14.01,2013-01-28 18:24:00,
2013-01-28 14:29:00,83.7,43.1,30.09,NNE,19,0.0,0.0,24,0.00,,SCT120,0.04,VWS V14.01,2013-01-28 18:29:00,
2013-01-28 14:34:00,84.6,46.9,30.09,NNE,19,0.0,0.0,27,0.00,,SCT120,0.04,VWS V14.01,2013-01-28 18:34:00,
2013-01-28 14:39:00,85.5,42.3,30.09,NNE,19,0.0,0.0,22,0.00,,SCT120,0.04,VWS V14.01,2013-01-28 18:39:00,
2013-01-28 14:44:00,84.7,41.7,30.09,NNE,19,0.0,0.0,22,0.00,,SCT120,0.04,VWS V14.01,2013-01-28 18:44:00,
2013-01-28 14:49:00,84.6,40.4,30.09,NNE,19,0.0,0.0,21,0.00,,SCT120,0.04,VWS V14.01,2013-01-28 18:49:00,
2013-01-28 14:54:00,83.5,41.8,30.09,NNE,19,0.0,0.0,23,0.00,,SCT120,0.04,VWS V14.01,2013-01-28 18:54:00,
2013-01-28 14:59:00,82.8,42.3,30.09,NNE,19,0.0,0.0,24,0.00,,SCT120,0.04,VWS V14.01,2013-01-28 18:59:00,
2013-01-28 15:04:00,83.7,45.2,30.09,NNE,19,0.0,0.0,26,0.00,,SCT120,0.04,VWS V14.01,2013-01-28 19:04:00,
2013-01-28 15:09:00,84.2,42.4,30.06,NNE,19,0.0,0.0,23,0.00,,SCT120,0.04,VWS V14.01,2013-01-28 19:09:00,
2013-01-28 15:14:00,84.9,43.0,30.06,NNE,19,0.0,0.0,23,0.00,,SCT120,0.04,VWS V14.01,2013-01-28 19:14:00,
2013-01-28 15:19:00,85.6,43.6,30.06,NNE,19,0.0,0.0,23,0.00,,SCT120,0.04,VWS V14.01,2013-01-28 19:19:00,
2013-01-28 15:24:00,86.4,41.9,30.06,NNE,19,0.0,0.0,21,0.00,,SCT120,0.04,VWS V14.01,2013-01-28 19:24:00,
2013-01-28 15:29:00,83.7,42.0,30.06,NNE,19,0.0,0.0,23,0.00,,SCT120,0.04,VWS V14.01,2013-01-28 19:29:00,
2013-01-28 15:34:00,81.7,48.1,30.06,NNE,19,0.0,0.0,31,0.00,,SCT120,0.04,VWS V14.01,2013-01-28 19:34:00,
2013-01-28 15:39:00,81.1,49.3,30.06,NNE,19,0.0,0.0,33,0.00,,SCT120,0.04,VWS V14.01,2013-01-28 19:39:00,
2013-01-28 15:44:00,81.5,51.2,30.06,NNE,19,0.0,0.0,35,0.00,,SCT120,0.04,VWS V14.01,2013-01-28 19:44:00,
2013-01-28 15:49:00,81.9,50.0,30.06,NNE,19,0.0,0.0,33,0.00,,SCT120,0.04,VWS V14.01,2013-01-28 19:49:00,
2013-01-28 15:54:00,81.5,49.7,30.06,NNE,19,0.0,0.0,33,0.00,,SCT120,0.04,VWS V14.01,2013-01-28 19:54:00,
2013-01-28 15:59:00,81.7,49.8,30.06,NNE,19,0.0,0.0,33,0.00,,SCT120,0.04,VWS V14.01,2013-01-28 19:59:00,
2013-01-28 16:04:00,81.3,48.7,30.06,NNE,19,0.0,0.0,32,0.00,,SCT120,0.04,VWS V14.01,2013-01-28 20:04:00,
2013-01-28 16:09:00,81.1,47.7,30.06,NNE,19,0.0,0.0,31,0.00,,SCT120,0.04,VWS V14.01,2013-01-28 20:09:00,
2013-01-28 16:14:00,81.5,48.0,30.06,NNE,19,0.0,0.0,31,0.00,,SCT120,0.04,VWS V14.01,2013-01-28 20:14:00,
2013-01-28 16:19:00,82.4,48.8,30.06,NNE,19,0.0,0.0,31,0.00,,SCT120,0.04,VWS V14.01,2013-01-28 20:19:00,
2013-01-28 16:24:00,82.9,49.2,30.06,NNE,19,0.0,0.0,31,0.00,,SCT120,0.04,VWS V14.01,2013-01-28 20:24:00,
2013-01-28 16:29:00,82.6,48.0,30.06,NNE,19,0.0,0.0,30,0.00,,SCT120,0.04,VWS V14.01,2013-01-28 20:29:00,
2013-01-28 16:34:00,82.2,47.7,30.06,NNE,19,0.0,0.0,30,0.00,,SCT120,0.04,VWS V14.01,2013-01-28 20:34:00,
2013-01-28 16:39:00,82.2,47.7,30.06,NNE,19,0.0,0.0,30,0.00,,SCT120,0.04,VWS V14.01,2013-01-28 20:39:00,
2013-01-28 16:44:00,82.9,48.3,30.06,NNE,19,0.0,0.0,30,0.00,,SCT120,0.04,VWS V14.01,2013-01-28 20:44:00,
2013-01-28 16:49:00,83.1,47.6,30.06,NNE,19,0.0,0.0,29,0.00,,SCT120,0.04,VWS V14.01,2013-01-28 20:49:00,
2013-01-28 16:54:00,82.6,47.1,30.06,NNE,19,0.0,0.0,29,0.00,,SCT120,0.04,VWS V14.01,2013-01-28 20:54:00,
2013-01-28 16:59:00,82.4,47.0,30.06,NNE,19,0.0,0.0,29,0.00,,SCT120,0.04,VWS V14.01,2013-01-28 20:59:00,
2013-01-28 17:04:00,82.4,47.9,30.06,NNE,19,0.0,0.0,30,0.00,,SCT120,0.04,VWS V14.01,2013-01-28 21:04:00,
2013-01-28 17:09:00,82.0,48.5,30.06,NNE,19,0.0,0.0,31,0.00,,SCT120,0.04,VWS V14.01,2013-01-28 21:09:00,
2013-01-28 17:14:00,81.5,48.0,30.06,NNE,19,0.0,0.0,31,0.00,,SCT120,0.04,VWS V14.01,2013-01-28 21:14:00,
2013-01-28 17:19:00,81.0,47.5,30.06,NNE,19,0.0,0.0,31,0.00,,SCT120,0.04,VWS V14.01,2013-01-28 21:19:00,
2013-01-28 17:24:00,80.8,48.2,30.06,NNE,19,0.0,0.0,32,0.00,,SCT120,0.04,VWS V14.01,2013-01-28 21:24:00,
2013-01-28 17:29:00,80.8,47.4,30.06,NNE,19,0.0,0.0,31,0.00,,SCT120,0.04,VWS V14.01,2013-01-28 21:29:00,
2013-01-28 17:34:00,80.8,47.4,30.06,NNE,19,0.0,0.0,31,0.00,,SCT120,0.04,VWS V14.01,2013-01-28 21:34:00,
2013-01-28 17:39:00,80.8,47.4,30.06,NNE,19,0.0,0.0,31,0.00,,SCT120,0.04,VWS V14.01,2013-01-28 21:39:00,
2013-01-28 17:44:00,80.8,47.4,30.06,NNE,19,0.0,0.0,31,0.00,,SCT120,0.04,VWS V14.01,2013-01-28 21:44:00,
2013-01-28 17:49:00,80.8,46.5,30.06,NNE,19,0.0,0.0,30,0.00,,SCT120,0.04,VWS V14.01,2013-01-28 21:49:00,
2013-01-28 17:54:00,80.8,47.4,30.09,NNE,19,0.0,0.0,31,0.00,,SCT120,0.04,VWS V14.01,2013-01-28 21:54:00,
2013-01-28 17:59:00,80.6,47.2,30.09,NNE,19,0.0,0.0,31,0.00,,SCT120,0.04,VWS V14.01,2013-01-28 21:59:00,
2013-01-28 18:04:00,80.6,47.2,30.09,NNE,19,0.0,0.0,31,0.00,,SCT120,0.04,VWS V14.01,2013-01-28 22:04:00,
2013-01-28 18:09:00,80.6,48.0,30.09,NNE,19,0.0,0.0,32,0.00,,SCT120,0.04,VWS V14.01,2013-01-28 22:09:00,
2013-01-28 18:14:00,80.2,48.5,30.09,NNE,19,0.0,0.0,33,0.00,,SCT120,0.04,VWS V14.01,2013-01-28 22:14:00,
2013-01-28 18:19:00,79.9,49.0,30.09,NNE,19,0.0,0.0,34,0.00,,SCT120,0.04,VWS V14.01,2013-01-28 22:19:00,
2013-01-28 18:24:00,79.7,48.9,30.09,NNE,19,0.0,0.0,34,0.00,,SCT120,0.04,VWS V14.01,2013-01-28 22:24:00,
2013-01-28 18:29:00,79.7,48.9,30.09,NNE,19,0.0,0.0,34,0.00,,SCT120,0.04,VWS V14.01,2013-01-28 22:29:00,
2013-01-28 18:34:00,79.5,48.7,30.09,NNE,19,0.0,0.0,34,0.00,,SCT120,0.04,VWS V14.01,2013-01-28 22:34:00,
2013-01-28 18:39:00,79.5,48.7,30.09,NNE,19,0.0,0.0,34,0.00,,SCT120,0.04,VWS V14.01,2013-01-28 22:39:00,
2013-01-28 18:44:00,79.3,49.3,30.09,NNE,19,0.0,0.0,35,0.00,,SCT120,0.04,VWS V14.01,2013-01-28 22:44:00,
2013-01-28 18:49:00,79.2,49.2,30.09,NNE,19,0.0,0.0,35,0.00,,SCT120,0.04,VWS V14.01,2013-01-28 22:49:00,
2013-01-28 18:54:00,79.0,49.8,30.09,NNE,19,0.0,0.0,36,0.00,,SCT120,0.04,VWS V14.01,2013-01-28 22:54:00,
2013-01-28 18:59:00,79.0,49.8,30.09,NNE,19,0.0,0.0,36,0.00,,SCT120,0.04,VWS V14.01,2013-01-28 22:59:00,
2013-01-28 19:04:00,79.0,49.8,30.09,NNE,19,0.0,0.0,36,0.00,,SCT120,0.04,VWS V14.01,2013-01-28 23:04:00,
2013-01-28 19:09:00,79.0,49.8,30.09,NNE,19,0.0,0.0,36,0.00,,SCT120,0.04,VWS V14.01,2013-01-28 23:09:00,
2013-01-28 19:14:00,78.8,49.6,30.09,NNE,19,0.0,0.0,36,0.00,,SCT120,0.04,VWS V14.01,2013-01-28 23:14:00,
2013-01-28 19:19:00,78.6,50.2,30.09,NNE,19,0.0,0.0,37,0.00,,SCT120,0.04,VWS V14.01,2013-01-28 23:19:00,
2013-01-28 19:24:00,78.4,50.8,30.09,NNE,19,0.0,0.0,38,0.00,,SCT120,0.04,VWS V14.01,2013-01-28 23:24:00,
2013-01-28 19:29:00,78.4,50.8,30.09,NNE,19,0.0,0.0,38,0.00,,SCT120,0.04,VWS V14.01,2013-01-28 23:29:00,
2013-01-28 19:34:00,78.3,51.3,30.09,NNE,19,0.0,0.0,39,0.00,,SCT120,0.04,VWS V14.01,2013-01-28 23:34:00,
2013-01-28 19:39:00,78.1,51.8,30.09,NNE,19,0.0,0.0,40,0.00,,SCT120,0.04,VWS V14.01,2013-01-28 23:39:00,
2013-01-28 19:44:00,77.9,52.3,30.09,NNE,19,0.0,0.0,41,0.00,,SCT120,0.04,VWS V14.01,2013-01-28 23:44:00,
2013-01-28 19:49:00,77.9,52.3,30.09,NNE,19,0.0,0.0,41,0.00,,SCT120,0.04,VWS V14.01,2013-01-28 23:49:00,
2013-01-28 19:54:00,77.9,52.3,30.12,NNE,19,0.0,0.0,41,0.00,,SCT120,0.04,VWS V14.01,2013-01-28 23:54:00,
2013-01-28 19:59:00,77.7,52.2,30.12,NNE,19,0.0,0.0,41,0.00,,SCT120,0.04,VWS V14.01,2013-01-28 23:59:00,
2013-01-28 20:04:00,77.7,52.2,30.12,NNE,19,0.0,0.0,41,0.00,,SCT120,0.04,VWS V14.01,2013-01-29 00:04:00,
2013-01-28 20:09:00,77.7,52.2,30.12,NNE,19,0.0,0.0,41,0.00,,SCT120,0.04,VWS V14.01,2013-01-29 00:09:00,
2013-01-28 20:14:00,77.7,52.2,30.12,NNE,19,0.0,0.0,41,0.00,,SCT120,0.04,VWS V14.01,2013-01-29 00:14:00,
2013-01-28 20:19:00,77.7,52.2,30.12,NNE,19,0.0,0.0,41,0.00,,SCT120,0.04,VWS V14.01,2013-01-29 00:19:00,
2013-01-28 20:24:00,77.5,52.0,30.12,NNE,19,0.0,0.0,41,0.00,,SCT120,0.04,VWS V14.01,2013-01-29 00:24:00,
2013-01-28 20:29:00,77.5,52.0,30.12,NNE,19,0.0,0.0,41,0.00,,SCT120,0.04,VWS V14.01,2013-01-29 00:29:00,
2013-01-28 20:34:00,77.5,52.7,30.12,NNE,19,0.0,0.0,42,0.00,,SCT120,0.04,VWS V14.01,2013-01-29 00:34:00,
2013-01-28 20:39:00,77.4,53.1,30.12,NNE,19,0.0,0.0,43,0.00,,SCT120,0.04,VWS V14.01,2013-01-29 00:39:00,
2013-01-28 20:44:00,77.4,53.1,30.12,NNE,19,0.0,0.0,43,0.00,,SCT120,0.04,VWS V14.01,2013-01-29 00:44:00,
2013-01-28 20:49:00,77.4,53.1,30.12,NNE,19,0.0,0.0,43,0.00,,SCT120,0.04,VWS V14.01,2013-01-29 00:49:00,
2013-01-28 20:54:00,77.4,53.8,30.12,NNE,19,0.0,0.0,44,0.00,,SCT120,0.04,VWS V14.01,2013-01-29 00:54:00,
2013-01-28 20:59:00,77.2,53.6,30.12,NNE,19,0.0,0.0,44,0.00,,SCT120,0.04,VWS V14.01,2013-01-29 00:59:00,
2013-01-28 21:04:00,77.2,53.6,30.12,NNE,19,0.0,0.0,44,0.00,,SCT120,0.04,VWS V14.01,2013-01-29 01:04:00,
2013-01-28 21:09:00,77.0,53.4,30.12,NNE,19,0.0,0.0,44,0.00,,SCT120,0.04,VWS V14.01,2013-01-29 01:09:00,
2013-01-28 21:14:00,77.0,54.1,30.12,NNE,19,0.0,0.0,45,0.00,,SCT120,0.04,VWS V14.01,2013-01-29 01:14:00,
2013-01-28 21:19:00,77.0,54.1,30.12,NNE,19,0.0,0.0,45,0.00,,SCT120,0.04,VWS V14.01,2013-01-29 01:19:00,
2013-01-28 21:24:00,77.0,54.7,30.12,NNE,19,0.0,0.0,46,0.00,,SCT120,0.04,VWS V14.01,2013-01-29 01:24:00,
2013-01-28 21:29:00,77.0,54.7,30.12,NNE,19,0.0,0.0,46,0.00,,SCT120,0.04,VWS V14.01,2013-01-29 01:29:00,
2013-01-28 21:34:00,77.0,54.7,30.12,NNE,19,0.0,0.0,46,0.00,,SCT120,0.04,VWS V14.01,2013-01-29 01:34:00,
2013-01-28 21:39:00,77.2,57.7,30.12,NNE,19,0.0,0.0,51,0.00,,SCT120,0.04,VWS V14.01,2013-01-29 01:39:00,
2013-01-28 21:44:00,76.6,60.8,30.12,NNE,19,0.0,0.0,58,0.00,,SCT120,0.04,VWS V14.01,2013-01-29 01:44:00,
2013-01-28 21:49:00,76.3,61.9,30.12,NNE,19,0.0,0.0,61,0.00,,SCT120,0.04,VWS V14.01,2013-01-29 01:49:00,
2013-01-28 21:54:00,76.1,62.6,30.12,NNE,19,0.0,0.0,63,0.00,,SCT120,0.04,VWS V14.01,2013-01-29 01:54:00,
2013-01-28 21:59:00,75.9,62.9,30.12,NNE,19,0.0,0.0,64,0.00,,SCT120,0.04,VWS V14.01,2013-01-29 01:59:00,
2013-01-28 22:04:00,75.7,63.2,30.12,NNE,19,0.0,0.0,65,0.00,,SCT120,0.04,VWS V14.01,2013-01-29 02:04:00,
2013-01-28 22:09:00,75.7,63.2,30.12,NNE,19,0.0,0.0,65,0.00,,SCT120,0.04,VWS V14.01,2013-01-29 02:09:00,
2013-01-28 22:14:00,75.7,63.2,30.12,NNE,19,0.0,0.0,65,0.00,,SCT120,0.04,VWS V14.01,2013-01-29 02:14:00,
2013-01-28 22:19:00,75.6,63.4,30.12,NNE,19,0.0,0.0,66,0.00,,SCT120,0.04,VWS V14.01,2013-01-29 02:19:00,
2013-01-28 22:24:00,75.4,63.2,30.12,NNE,19,0.0,0.0,66,0.00,,SCT120,0.04,VWS V14.01,2013-01-29 02:24:00,
2013-01-28 22:29:00,75.2,63.1,30.12,NNE,19,0.0,0.0,66,0.00,,SCT120,0.04,VWS V14.01,2013-01-29 02:29:00,
2013-01-28 22:34:00,75.0,63.8,30.12,NNE,19,0.0,0.0,68,0.00,,SCT120,0.04,VWS V14.01,2013-01-29 02:34:00,
2013-01-28 22:39:00,74.7,63.8,30.12,NNE,19,0.0,0.0,69,0.00,,SCT120,0.04,VWS V14.01,2013-01-29 02:39:00,
2013-01-28 22:44:00,74.5,63.7,30.12,NNE,19,0.0,0.0,69,0.00,,SCT120,0.04,VWS V14.01,2013-01-29 02:44:00,
2013-01-28 22:49:00,74.5,64.1,30.12,NNE,19,0.0,0.0,70,0.00,,SCT120,0.04,VWS V14.01,2013-01-29 02:49:00,
2013-01-28 22:54:00,74.5,64.1,30.12,NNE,19,0.0,0.0,70,0.00,,SCT120,0.04,VWS V14.01,2013-01-29 02:54:00,
2013-01-28 22:59:00,74.3,63.9,30.12,NNE,19,0.0,0.0,70,0.00,,SCT120,0.04,VWS V14.01,2013-01-29 02:59:00,
2013-01-28 23:04:00,74.3,64.3,30.12,NNE,19,0.0,0.0,71,0.00,,SCT120,0.04,VWS V14.01,2013-01-29 03:04:00,
2013-01-28 23:09:00,74.3,64.3,30.12,NNE,19,0.0,0.0,71,0.00,,SCT120,0.04,VWS V14.01,2013-01-29 03:09:00,
2013-01-28 23:14:00,74.5,64.9,30.12,NNE,19,0.0,0.0,72,0.00,,SCT120,0.04,VWS V14.01,2013-01-29 03:14:00,
2013-01-28 23:19:00,74.5,64.9,30.12,NNE,19,0.0,0.0,72,0.00,,SCT120,0.04,VWS V14.01,2013-01-29 03:19:00,
2013-01-28 23:24:00,74.5,65.3,30.12,NNE,19,0.0,0.0,73,0.00,,SCT120,0.04,VWS V14.01,2013-01-29 03:24:00,
2013-01-28 23:29:00,74.1,64.9,30.12,NNE,19,0.0,0.0,73,0.00,,SCT120,0.04,VWS V14.01,2013-01-29 03:29:00,
2013-01-28 23:34:00,73.9,64.8,30.12,NNE,19,0.0,0.0,73,0.00,,SCT120,0.04,VWS V14.01,2013-01-29 03:34:00,
2013-01-28 23:39:00,73.9,64.8,30.12,NNE,19,0.0,0.0,73,0.00,,SCT120,0.04,VWS V14.01,2013-01-29 03:39:00,
2013-01-28 23:44:00,73.6,64.4,30.12,NNE,19,0.0,0.0,73,0.00,,SCT120,0.04,VWS V14.01,2013-01-29 03:44:00,
2013-01-28 23:49:00,73.4,64.2,30.12,NNE,19,0.0,0.0,73,0.00,,SCT120,0.04,VWS V14.01,2013-01-29 03:49:00,
2013-01-28 23:54:00,73.6,64.4,30.12,NNE,19,0.0,0.0,73,0.00,,SCT120,0.04,VWS V14.01,2013-01-29 03:54:00,
2013-01-28 23:59:00,73.4,64.6,30.12,NNE,19,0.0,0.0,74,0.00,,SCT120,0.00,VWS V14.01,2013-01-29 03:59:00,